STARLINK-31818, 59741

Orbit data source: Space-Track

STARLINK-31818, 59741 is a payload satellite owned by SpaceX/Seattle (US) in LEO that was launched on Mon, 13 May 2024 UTC via an FALCON 9 launch vehicle from the Air Force Eastern Test Range (AFETR). Payload-class satellites include a variety of spacecraft equipped with specific instruments for various scientific and technological missions. These include communications satellites like Starlink; space stations such as the ISS; scientific satellites like the Hubble; Earth observation satellites from companies like Planet Labs, Umbra, and HawkEye 360; GPS; miniature CubeSats for education and research; and military/defense satellites.

Loading next visibility...
Identifier
59741, 2024-090M
Orbit
LEO
Country
Flag of USUS
Related business
Manufacturer
SpaceX/Seattle
Mission
Operational Commercial Communications
Bus & Motor
STARLINK V2M, Unknown motor
Mass
730 kg wet, ~700 kg dry
Launch date (UTC)
2024-05-13 (2 years ago)
Launch vehicle
FALCON 9
Launch site
Air Force Eastern Test Range (AFETR)
Object type
Payload
Rocket body
Debris
Shape & HBR
Box + 2 Pan, 17.7 m
Radar Cross Section
33.884 m², Large (>1 m²)

Expand to show TLE details & history
Last TLE update: 2 days ago

TLE from 2 days ago
0 STARLINK-31818
1 59741U 24090M   26171.45118297 -.00000367  00000-0 -38036-5 0  9998
2 59741  43.0007 323.3671 0001270 277.1792  82.8915 15.27578012119150
Epoch: 2026-06-20T10:49Z
TLE epoch observation values (Epoch: 2026-06-20T10:49:42.208Z)
Latitude
-0.00004°
Longitude
-107.72443°
Altitude
482.723 km
Speed
7.626 km/s
True Right ascension
21h 33m 28s
True Declination
0° 00' 00"
Sunlit
Object was in full shadow at epoch
Visualization orbit readout
Latitude
Unknown
Longitude
Unknown
Altitude
Unknown
Speed
Unknown
Apparent Right ascension
Unknown
Apparent Declination
Unknown
Sunlit
N/A
Visualization observer readout
Local Sidereal Time
00:31:09
Azimuth
Unknown
Elevation
Unknown
Doppler factor
Unknown
Orbital elements
Apogee altitude
485.872 km
Perigee altitude
484.128 km
Semi-major axis
6,863.137 km
Eccentricity
0.00013
Inclination
43.0007°
RAAN
323.3671°
Arg. of periapsis
277.1792°
True anomaly
82.90594°
Mean anomaly
82.8915°
Eccentric anomaly
82.89872°
Mean motion
3.81733 °/min
Orbital period
94.31 mins
BSTAR
-0.0000038036
Loading maneuver chart data...
Computing Atmospheric mass density...
Loading historical data...
Loading historical data...
Loading historical data...
Loading historical data...
Loading historical data...
Loading historical data...
Loading historical data...

Documentation

Showing up to 5 results
|